Location: Axtheid
(49.6213°N, 11.8205°E)
Time: 21:56:48
(UTC+00:00)

Envisat - Pass Details

Date: 18 January 2022
Orbit: 764 x 765 km, 98.2° (Epoch: 21 May)

Event Time Altitude Azimuth Distance (km) Brightness Sun altitude
Rises 02:34:46 0° 31° (NNE) 3,241 6.8 -42.4°
Reaches altitude 10° 02:38:41 10° 62° (ENE) 2,308 6.1 -41.8°
Maximum altitude 02:40:40 12° 85° (E) 2,155 5.9 -41.5°
Drops below altitude 10° 02:42:40 10° 108° (ESE) 2,303 5.9 -41.2°
Sets 02:46:31 0° 138° (SE) 3,221 6.5 -40.6°
